Theta_e
296 296 292 294 293 288 290 292 295 299 299 299 298 297 295 290 288 286 285 282 280 279 278 276 275 275 275 274 274 274 273 274 275 275 276 277 278 279 280 282 283 285 285 288
294 294 294 296 296 292 289 292 293 295 296 296 296 296 295 292 288 287 286 284 281 279 277 275 274 274 274 274 273 273 273 273 274 274 275 276 277 278 279 281 283 284 285 286
298 289 289 294 293 295 292 292 292 293 294 295 296 293 291 291 289 287 286 284 281 279 276 275 273 273 273 272 272 272 272 273 273 274 274 275 276 277 279 280 282 283 283 285
298 292 298 299 286 293 295 294 293 294 294 294 294 291 286 286 287 285 283 281 279 277 275 273 272 272 272 271 272 272 272 272 273 273 273 273 275 276 278 279 280 282 283 284
298 297 299 298 288 289 290 294 292 294 294 294 293 280 285 281 280 282 281 279 277 274 272 271 271 271 271 271 271 271 271 272 272 272 272 273 273 275 277 278 280 281 282 283
298 297 300 302 284 281 289 295 294 292 292 293 283 289 292 282 278 277 275 274 273 272 271 271 271 270 270 271 271 271 271 271 271 272 272 272 273 274 276 278 279 281 282 283
298 299 298 296 282 280 296 300 287 289 290 285 286 287 277 275 276 275 274 272 271 271 270 270 270 270 270 270 271 270 270 270 271 272 272 273 274 275 276 277 279 280 282 283
296 298 297 283 279 291 294 280 282 279 281 282 280 275 275 275 275 274 273 272 271 271 271 270 269 269 270 270 270 269 269 269 270 271 272 273 273 275 277 277 278 280 282 283
297 298 292 282 291 284 281 284 279 280 277 278 276 275 275 275 274 273 272 272 271 270 270 270 269 268 268 269 268 268 269 269 270 271 272 273 275 275 277 277 278 280 281 283
296 297 290 282 283 280 279 281 278 278 276 275 276 275 274 273 273 272 271 270 270 269 270 269 269 268 267 267 267 267 268 269 270 270 272 274 274 276 276 277 278 279 281 284
295 295 286 284 284 281 278 277 276 275 275 275 275 274 272 272 271 270 270 269 269 268 267 267 267 267 267 266 266 266 267 268 270 271 272 273 275 275 276 277 278 280 281 283
298 288 288 280 277 278 277 277 275 274 273 273 273 272 271 271 269 268 267 267 266 266 265 265 265 266 267 267 267 266 266 269 270 271 272 274 274 275 275 276 278 279 280 282
282 275 274 273 274 276 276 275 274 273 272 270 269 270 270 269 268 268 267 266 265 264 264 265 265 265 267 267 267 267 266 268 269 271 273 273 274 274 275 275 276 277 279 280
272 273 273 272 272 271 272 271 269 267 267 267 266 265 265 265 265 265 265 263 262 263 263 264 264 265 267 267 267 268 268 269 270 271 272 274 273 274 274 274 275 276 277 279
268 268 270 267 267 267 268 268 268 266 265 262 260 260 260 261 261 261 261 261 261 262 263 264 264 265 267 267 267 268 268 269 270 271 273 273 272 272 273 274 274 275 277 278
267 267 267 267 266 265 265 265 265 262 261 258 259 258 257 257 258 259 260 260 260 263 263 263 264 266 266 267 267 268 269 270 272 272 272 271 271 272 273 273 274 276 276 277
267 267 266 265 263 262 262 258 261 260 256 257 257 256 256 256 257 259 260 260 260 261 262 262 264 266 267 267 268 268 269 270 271 270 270 270 270 271 272 273 275 275 275 276
263 263 262 264 262 259 257 256 256 255 257 256 255 255 255 255 257 257 259 260 261 262 263 264 265 266 268 268 268 268 270 271 270 269 269 269 270 271 273 272 273 274 275 276
260 259 260 260 258 257 256 256 255 256 255 255 255 256 255 256 256 258 259 259 260 262 264 265 266 268 267 268 269 270 270 269 268 268 268 269 269 270 271 272 273 274 275 275
256 255 255 253 255 256 255 255 255 255 255 255 255 255 256 258 258 259 260 261 262 263 264 266 267 267 267 267 269 269 268 267 266 266 267 269 269 269 270 271 272 273 273 274
256 255 255 256 255 255 256 256 255 256 256 255 254 255 256 258 260 260 263 264 264 264 266 267 266 266 267 269 268 267 266 265 265 266 266 267 268 269 269 270 271 272 273 273
253 254 254 254 255 256 256 256 255 255 255 256 256 257 258 261 261 262 262 263 263 265 266 266 265 267 269 267 266 265 265 265 265 265 265 266 267 268 269 270 270 271 272 273
254 254 254 253 254 256 256 256 256 256 256 257 257 258 259 260 260 261 262 262 263 264 266 264 266 268 269 266 265 265 265 265 265 264 264 265 266 267 269 269 269 270 271 272
253 253 254 254 254 253 256 257 257 257 258 258 258 259 259 260 261 261 260 261 262 264 265 264 265 267 268 265 264 264 264 264 264 264 264 266 266 267 268 268 269 269 270 271
254 254 253 252 254 257 256 257 257 258 258 259 260 260 260 260 260 261 261 261 261 262 263 262 264 265 264 264 263 264 264 264 264 266 266 265 266 266 266 267 268 269 270 272
254 257 257 256 257 257 257 257 258 259 259 260 261 260 260 260 260 260 261 261 260 261 261 261 262 263 263 263 264 264 263 263 264 264 265 266 266 265 266 267 268 269 270 271
255 258 256 256 256 256 257 257 257 259 260 260 260 260 260 260 260 261 260 259 259 260 261 261 261 262 263 263 263 263 263 263 264 265 266 265 266 266 267 268 269 270 271 272
Wind_Speed
21 17 8 12 10 19 25 26 15 33 25 29 26 13 14 16 16 15 15 13 13 11 10 8 8 8 9 11 15 18 22 22 21 20 21 23 23 25 26 27 27 26 25 28
12 15 19 23 23 21 25 25 30 34 35 33 28 22 22 16 12 15 15 13 11 12 11 9 7 8 10 12 15 18 22 24 25 23 22 23 24 25 26 27 27 26 22 26
10 4 1 14 27 29 21 21 30 25 34 30 19 15 13 12 13 16 14 11 12 12 11 7 6 7 11 14 16 19 22 25 24 24 24 24 24 24 26 26 27 28 24 24
5 5 9 7 6 13 26 25 24 20 23 19 16 9 6 11 12 13 11 11 10 10 8 6 6 8 12 14 17 18 20 22 22 24 28 27 25 25 26 26 27 27 26 25
5 10 11 21 7 9 10 18 23 26 28 28 20 3 14 14 14 10 11 9 11 9 6 5 7 9 10 14 14 17 18 19 23 25 27 27 27 28 28 27 27 29 26 27
6 6 10 14 4 4 7 12 12 22 24 23 9 9 11 9 11 9 12 12 10 7 4 4 6 8 10 12 13 15 17 22 26 27 26 27 27 28 30 28 28 30 28 26
19 13 8 7 9 5 7 8 0 8 10 10 9 5 3 8 10 13 13 11 8 5 3 5 5 8 11 12 15 16 20 22 26 27 26 27 26 27 29 30 29 29 26 26
10 7 14 10 8 12 4 2 3 3 5 10 5 7 8 9 10 10 11 9 6 3 3 3 5 7 11 14 14 17 19 21 25 26 26 25 26 26 27 29 27 26 24 25
14 9 2 18 5 7 3 5 5 3 5 8 10 9 10 9 9 8 8 6 4 3 3 5 5 6 12 14 15 16 18 22 22 25 26 23 24 26 25 26 24 23 22 23
6 14 12 10 8 4 6 3 5 3 8 10 10 11 9 9 8 7 6 4 3 3 5 7 7 9 12 15 14 16 18 20 22 21 23 22 22 22 22 24 23 22 21 23
11 15 1 9 15 9 6 6 8 7 8 9 10 10 9 7 7 6 4 4 5 5 7 9 9 11 12 13 15 15 17 20 21 19 22 23 22 22 24 27 26 28 26 26
12 4 1 4 1 9 10 9 10 11 9 7 7 9 8 6 6 5 4 4 5 6 8 11 12 15 16 15 15 17 17 19 20 22 21 21 23 26 25 24 29 30 29 25
0 4 8 7 8 6 7 8 8 8 9 10 8 8 7 5 5 4 4 5 6 9 11 14 16 18 18 17 15 17 17 20 20 22 21 21 21 24 23 32 26 26 26 27
6 6 5 3 4 6 10 11 14 14 12 11 8 6 3 2 1 3 4 5 10 12 14 15 17 20 19 17 16 20 20 21 21 20 21 20 23 24 25 21 23 29 30 29
5 5 6 11 9 9 9 10 10 9 7 6 5 4 1 1 4 6 9 11 12 15 17 16 18 22 19 17 19 19 18 19 19 22 19 23 25 23 23 23 20 23 26 30
8 8 9 10 10 7 5 5 7 5 3 3 2 1 1 5 8 11 12 11 9 11 18 19 21 22 20 18 20 17 19 19 21 19 21 23 22 21 21 20 22 21 21 22
9 6 7 7 6 4 3 4 4 4 3 2 1 2 5 7 10 10 11 12 12 16 18 19 22 21 19 19 16 18 19 19 18 20 21 22 22 21 21 20 20 22 22 21
4 6 4 7 9 7 5 4 5 4 2 2 2 4 5 6 8 13 14 14 14 15 17 16 16 17 19 15 19 19 19 16 18 20 21 21 21 23 22 20 20 22 23 21
5 8 8 9 8 6 5 5 5 4 2 2 4 5 8 10 11 12 12 12 11 12 15 17 15 17 16 19 20 21 11 15 19 20 20 21 21 20 21 22 22 23 23 21
6 7 10 9 8 5 6 5 4 3 2 3 5 7 7 9 9 11 10 11 12 12 18 19 19 14 19 21 19 9 13 16 18 19 20 21 21 20 20 21 22 21 22 23
6 6 6 7 5 4 4 5 4 3 3 5 6 7 8 11 9 8 8 8 10 15 18 15 14 21 20 17 7 14 14 15 17 17 18 19 20 20 20 20 20 20 21 22
5 5 6 7 5 4 4 5 6 5 5 5 5 6 7 7 8 9 8 9 14 17 17 10 18 21 21 7 14 12 14 15 16 16 17 17 18 20 21 21 22 21 21 21
8 6 7 8 7 4 4 6 7 7 5 5 6 6 6 7 8 8 7 11 15 19 11 15 19 20 23 18 16 16 16 17 18 17 17 17 18 20 21 22 22 21 21 21
7 7 6 6 6 3 4 5 5 6 7 7 8 6 6 7 9 4 8 12 15 18 17 18 21 21 22 21 19 19 18 20 20 19 19 20 19 20 20 22 22 21 21 22
7 7 7 7 6 6 7 6 6 7 7 6 5 6 6 7 7 10 12 15 15 16 16 19 21 20 19 19 20 20 21 21 21 22 20 21 20 22 22 21 22 22 22 21
9 8 8 11 8 6 6 5 5 4 4 5 5 5 6 8 8 9 12 13 15 15 15 18 20 20 19 20 21 24 23 24 23 23 21 22 23 23 23 23 24 24 23 23
7 9 6 7 9 9 9 8 7 6 5 5 7 7 7 6 8 11 12 12 13 13 13 15 18 19 21 21 24 24 25 25 23 23 23 25 25 24 24 23 23 23 23 23
Wind_Direction
256 269 236 244 216 198 210 222 228 265 253 265 266 272 258 236 237 238 236 230 230 230 220 226 253 278 294 302 316 323 321 316 315 316 316 313 309 305 302 297 293 289 290 285
265 243 242 256 247 218 212 224 235 251 265 263 273 282 272 250 240 240 238 235 223 213 209 224 254 282 298 303 313 319 317 311 318 319 317 315 314 309 303 299 295 291 291 286
260 102 239 268 233 225 207 229 219 242 243 261 272 251 253 252 236 236 242 221 201 198 201 221 256 284 294 304 311 314 313 315 316 317 315 315 315 311 305 301 298 294 291 287
266 147 247 285 7 220 218 237 224 243 254 250 249 275 284 238 235 225 216 196 188 186 190 220 253 276 291 299 306 309 309 311 311 313 316 315 314 311 306 302 297 293 291 291
226 219 300 296 181 176 182 258 225 233 246 251 257 287 260 223 212 215 194 172 168 168 187 228 266 282 288 297 299 304 307 306 310 313 313 311 308 308 306 304 301 295 291 291
196 228 233 270 163 190 155 263 201 208 231 240 153 242 257 167 183 168 155 150 152 162 191 244 275 285 293 295 298 299 305 307 312 314 308 304 305 304 303 301 298 295 292 288
232 242 248 275 148 161 220 270 80 206 226 158 198 236 88 136 148 152 149 148 150 161 208 259 283 295 292 294 291 299 304 307 312 314 308 305 303 303 303 300 300 291 292 289
218 238 252 139 117 203 216 139 167 199 199 198 186 139 139 148 149 150 148 151 159 177 224 261 286 288 288 287 298 303 304 304 308 312 311 305 303 304 305 302 300 297 300 298
198 210 148 190 206 180 168 145 182 199 194 182 165 162 155 157 159 157 155 158 171 199 256 279 282 280 287 294 306 306 303 302 305 307 309 307 303 305 305 304 298 301 304 299
196 242 224 202 208 171 186 149 151 181 170 171 162 157 158 165 167 160 161 172 191 231 268 282 285 288 287 300 304 303 301 302 306 305 307 307 305 304 303 299 300 300 299 301
253 267 304 232 219 194 149 130 130 133 153 168 155 158 158 165 166 155 175 198 210 240 268 279 294 295 299 303 305 302 301 302 305 307 306 305 303 303 303 301 298 299 301 297
255 16 288 98 280 147 152 164 154 144 133 126 148 149 156 159 159 166 199 231 236 262 273 287 296 301 306 312 306 304 300 304 305 307 305 306 306 308 309 305 305 303 300 297
297 91 83 92 59 79 126 133 132 129 132 126 101 126 146 154 161 194 212 247 265 275 285 293 299 302 310 315 306 304 294 299 303 305 304 307 307 310 311 315 311 308 310 310
73 119 110 45 95 82 108 101 101 94 92 96 107 97 109 127 201 244 262 278 287 287 286 292 296 299 311 312 306 306 302 300 298 300 299 302 310 308 306 305 311 313 314 313
80 56 86 114 99 90 102 116 114 103 101 92 75 92 70 275 272 281 289 294 291 286 287 293 297 299 312 309 309 304 299 298 297 296 303 309 309 302 301 303 299 302 308 315
106 105 113 112 110 109 113 103 107 105 106 111 105 112 296 286 292 296 295 297 289 289 294 299 298 303 308 305 309 300 301 297 303 304 310 309 305 302 301 303 302 304 308 310
124 127 139 117 137 137 100 79 97 122 128 135 138 303 307 310 300 290 299 302 292 287 290 290 293 304 299 304 300 298 297 299 299 310 306 306 301 297 296 297 300 300 294 300
71 79 75 132 142 140 134 131 120 129 151 172 269 304 309 299 289 298 304 309 305 300 296 296 299 300 297 296 302 298 292 293 300 304 305 304 300 296 301 299 295 294 301 308
81 95 95 109 120 118 110 132 173 182 196 267 308 304 295 289 290 295 305 302 298 298 304 314 309 304 303 303 304 299 288 299 304 304 302 302 302 296 301 301 302 306 306 306
101 95 100 103 106 118 146 165 172 202 256 282 291 294 296 303 307 301 301 286 289 299 312 309 309 307 303 306 304 299 307 305 302 302 301 301 301 297 297 302 302 302 303 304
122 122 125 141 143 155 175 182 193 232 248 273 274 278 290 308 320 315 306 314 323 323 316 323 322 315 310 304 308 316 306 301 300 301 301 299 299 299 299 299 299 301 303 304
155 168 165 159 169 180 205 213 226 250 269 271 269 274 291 306 320 319 306 302 320 320 316 326 323 316 311 359 338 320 312 307 305 304 301 298 296 299 299 302 303 304 303 304
178 176 174 183 187 200 210 234 244 248 257 276 271 265 274 299 304 313 319 326 328 321 333 340 324 313 315 346 336 324 318 315 311 307 302 298 295 293 294 295 295 297 300 301
183 188 187 187 189 211 240 229 232 240 262 275 277 257 275 308 317 313 314 325 328 321 328 329 325 323 323 333 326 320 317 314 310 306 302 302 296 293 290 291 291 293 296 294
191 184 186 188 208 230 231 237 246 250 251 261 266 261 275 298 278 309 322 327 327 326 321 325 327 326 325 320 317 315 314 311 310 308 307 303 299 298 292 289 288 290 289 293
190 200 209 212 221 223 221 219 241 240 251 265 270 263 279 294 294 299 315 318 320 321 321 328 334 330 324 320 318 319 321 318 314 312 307 302 301 302 299 296 296 296 300 303
218 214 215 226 228 225 226 230 230 242 245 246 270 285 290 291 302 309 313 315 317 319 322 326 333 336 329 325 325 331 328 321 318 311 306 307 310 307 304 302 300 300 299 298